Weather History for Tacoma, WA

Change the Weather History Date:

Monday, November 5, 2012

  Actual Average Record
Temperature  
Mean Temperature 51 °F -  
Max Temperature 60 °F 52 °F 86 °F (2004)
Min Temperature 42 °F 35 °F 19 °F (2003)
Degree Days  
Heating Degree Days 14    
Growing Degree Days 1 (Base 50)    
Moisture  
Dew Point 51 °F    
Average Humidity 92    
Maximum Humidity 100    
Minimum Humidity 48    
Precipitation  
Precipitation 0.05 in - - ()
Sea Level Pressure  
Sea Level Pressure 30.34 in    
Wind  
Wind Speed 7 mph (NNW)    
Max Wind Speed 12 mph    
Max Gust Speed 17 mph    
Visibility 8 miles    
Events Fog , Rain    
Averages and records for this station are not official NWS values.
T = Trace of Precipitation, MM = Missing Value Source: NWS Daily Summary

Daily Weather History Graph

Daily Weather History Graph

Search for Another Location

Airport:

Trip Planner

Search our weather history database for the weather conditions in past years. The results will help you decide how hot, cold, wet, or windy it might be!

Date:

Astronomy

Nov. 05, 2012 Rise Set
Actual Time 6:59 AM PST 4:46 PM PST
Civil Twilight 6:27 AM PST 5:18 PM PST
Nautical Twilight 5:51 AM PST 5:55 PM PST
Astronomical Twilight 5:15 AM PST 6:30 PM PST
Moon 10:30 PM PST (11/5) 12:22 PM PST (11/5)
Length of Visible Light 10h 51m
Length of Day
9h 46m
Waning Gibbous, 62% of the Moon is Illuminated
Nov 5
Waning Gibbous
Nov 6
Last Quarter
Nov 13
New
Nov 20
First Quarter
Nov 28
Full

Hourly Weather History & Observations

Time (PST) Temp. Dew Point Humidity Pressure Visibility Wind Dir Wind Speed Gust Speed Precip Events Conditions
12:03 AM 60.8 °F 59.0 °F 94% 30.31 in 8.0 mi WSW 11.5 mph - N/A Rain Light Rain
12:05 AM 60.8 °F 59.0 °F 94% 30.31 in 7.0 mi WSW 9.2 mph - N/A Rain Light Rain
12:09 AM 59.0 °F 59.0 °F 100% 30.31 in 5.0 mi SW 9.2 mph - N/A   Overcast
12:14 AM 59.0 °F 59.0 °F 100% 30.31 in 5.0 mi SW 6.9 mph - N/A   Overcast
12:19 AM 59.0 °F 59.0 °F 100% 30.31 in 5.0 mi SW 9.2 mph - N/A Rain Light Rain
12:31 AM 59.0 °F 59.0 °F 100% 30.31 in 4.0 mi SW 8.1 mph - N/A   Overcast
12:34 AM 59.0 °F 59.0 °F 100% 30.31 in 4.0 mi SW 9.2 mph - N/A   Light Drizzle
12:44 AM 59.0 °F 59.0 °F 100% 30.32 in 4.0 mi West 10.4 mph 17.3 mph N/A Rain Light Rain
12:58 AM 57.9 °F 57.6 °F 99% 30.32 in 5.0 mi SW 9.2 mph - 0.03 in   Light Drizzle
1:03 AM 57.2 °F 57.2 °F 100% 30.32 in 5.0 mi SW 10.4 mph - N/A Rain Light Rain
1:08 AM 57.2 °F 57.2 °F 100% 30.32 in 6.0 mi SW 9.2 mph - N/A   Light Drizzle
1:16 AM 57.2 °F 57.2 °F 100% 30.32 in 9.0 mi SW 9.2 mph - N/A   Overcast
1:21 AM 57.2 °F 57.2 °F 100% 30.32 in 10.0 mi SW 8.1 mph - N/A   Overcast
1:58 AM 57.2 °F 56.8 °F 99% 30.34 in 10.0 mi SSW 8.1 mph - 0.01 in   Overcast
2:34 AM 57.2 °F 57.2 °F 100% 30.35 in 10.0 mi North 4.6 mph - N/A   Light Drizzle
2:37 AM 57.2 °F 57.2 °F 100% 30.35 in 10.0 mi North 6.9 mph - N/A   Light Drizzle
2:58 AM 56.5 °F 56.1 °F 99% 30.36 in 10.0 mi North 8.1 mph - 0.00 in   Light Drizzle
3:01 AM 55.4 °F 55.4 °F 100% 30.35 in 10.0 mi North 9.2 mph - N/A   Overcast
3:06 AM 55.4 °F 55.4 °F 100% 30.35 in 10.0 mi NNE 6.9 mph - N/A   Overcast
3:16 AM 53.6 °F 53.6 °F 100% 30.35 in 10.0 mi North 9.2 mph - N/A   Overcast
3:22 AM 53.6 °F 53.6 °F 100% 30.36 in 10.0 mi North 8.1 mph - N/A Rain Light Rain
3:27 AM 53.6 °F 53.6 °F 100% 30.36 in 9.0 mi North 8.1 mph - N/A Rain Light Rain
3:31 AM 53.6 °F 53.6 °F 100% 30.36 in 8.0 mi North 8.1 mph - N/A Rain Light Rain
3:41 AM 53.6 °F 53.6 °F 100% 30.36 in 9.0 mi North 5.8 mph - N/A Rain Light Rain
3:58 AM 53.6 °F 53.2 °F 99% 30.37 in 10.0 mi North 6.9 mph - 0.01 in Rain Light Rain
3:59 AM 53.6 °F 53.6 °F 100% 30.36 in 10.0 mi North 6.9 mph - N/A   Overcast
4:34 AM 53.6 °F 53.6 °F 100% 30.37 in 10.0 mi North 4.6 mph - N/A   Overcast
4:54 AM 53.6 °F 51.8 °F 94% 30.37 in 10.0 mi NNE 3.5 mph - N/A   Overcast
4:58 AM 52.9 °F 52.7 °F 99% 30.38 in 10.0 mi NNE 4.6 mph - 0.00 in   Overcast
5:03 AM 53.6 °F 51.8 °F 94% 30.38 in 10.0 mi North 4.6 mph - N/A   Overcast
5:48 AM 53.6 °F 50.0 °F 88% 30.37 in 10.0 mi NE 3.5 mph - N/A   Overcast
5:58 AM 52.2 °F 49.5 °F 91% 30.40 in 10.0 mi NNE 4.6 mph - N/A   Mostly Cloudy
6:58 AM 51.1 °F 48.7 °F 92% 30.38 in 6.0 mi Calm Calm - N/A   Partly Cloudy
7:18 AM 50.0 °F 48.2 °F 94% 30.39 in 1.5 mi East 1.2 mph - N/A   Clear
7:28 AM 50.0 °F 48.2 °F 94% 30.39 in 4.0 mi Calm Calm - N/A   Partly Cloudy
7:48 AM 48.2 °F 48.2 °F 100% 30.37 in 1.8 mi SSE 2.3 mph - N/A   Partly Cloudy
7:53 AM 48.2 °F 48.2 °F 100% 30.37 in 0.5 mi South 2.3 mph - N/A Fog Fog
7:54 AM 48.2 °F 48.2 °F 100% 30.37 in 2.0 mi SSE 2.3 mph - N/A   Partly Cloudy
7:58 AM 48.2 °F 48.2 °F 100% 30.40 in 0.5 mi Calm Calm - N/A Fog Fog
8:03 AM 48.2 °F 48.2 °F 100% 30.38 in 1.0 mi Calm Calm - N/A   Clear
8:08 AM 50.0 °F 48.2 °F 94% 30.38 in 3.0 mi Calm Calm - N/A   Clear
8:13 AM 50.0 °F 48.2 °F 94% 30.38 in 2.0 mi North 1.2 mph - N/A   Clear
8:18 AM 50.0 °F 50.0 °F 100% 30.38 in 2.5 mi Calm Calm - N/A   Clear
8:23 AM 50.0 °F 50.0 °F 100% 30.38 in 7.0 mi Calm Calm - N/A   Clear
8:58 AM 53.4 °F 48.6 °F 84% 30.40 in 10.0 mi Calm Calm - N/A   Clear
9:58 AM 55.9 °F 46.8 °F 71% 30.39 in 10.0 mi Variable 3.5 mph - N/A   Clear
10:58 AM 57.7 °F 45.0 °F 62% 30.40 in 10.0 mi Variable 4.6 mph - N/A   Clear
11:58 AM 59.7 °F 43.3 °F 55% 30.38 in 10.0 mi Variable 5.8 mph - N/A   Clear
12:58 PM 60.8 °F 41.2 °F 48% 30.36 in 10.0 mi NE 8.1 mph - N/A   Clear
1:58 PM 58.8 °F 43.2 °F 56% 30.36 in 10.0 mi NNE 9.2 mph - N/A   Clear
2:58 PM 57.0 °F 43.5 °F 61% 30.33 in 10.0 mi NNE 5.8 mph - N/A   Clear
3:58 PM 56.1 °F 42.4 °F 60% 30.32 in 10.0 mi NNE 6.9 mph - N/A   Clear
4:58 PM 53.1 °F 42.1 °F 66% 30.31 in 10.0 mi NNE 5.8 mph - N/A   Clear
5:58 PM 50.9 °F 41.7 °F 71% 30.31 in 10.0 mi North 3.5 mph - N/A   Clear
6:58 PM 49.6 °F 43.7 °F 80% 30.28 in 10.0 mi Calm Calm - N/A   Clear
7:58 PM 45.9 °F 43.0 °F 90% 30.27 in 10.0 mi Calm Calm - N/A   Overcast
8:58 PM 45.7 °F 44.2 °F 95% 30.24 in 10.0 mi East 1.2 mph - N/A   Partly Cloudy
9:58 PM 44.8 °F 44.2 °F 98% 30.22 in 10.0 mi Calm Calm - N/A   Clear
10:58 PM 42.4 °F 41.9 °F 98% 30.20 in 10.0 mi South 2.3 mph - N/A   Clear
11:58 PM 42.1 °F 41.9 °F 99% 30.19 in 10.0 mi South 1.2 mph - N/A   Partly Cloudy